World Forecast Directory U.S. Weather Alerts
El Dorado Weather Logo
U.S. Radar Loop Conditions Map

U.S. Color Satellite North America Color Infrared Animated Satellite Loop

Interactive Wx Map Live U.S. Google Map Radar Thumbnail Image

US Precipitation 1 day, 24 hour precipitation map

US Temperatures US Conditions Map

US Climate Data US Conditions Map


NOAA NWS Hourly Roundups by Site
Regional Weather Roundup for Sacramento, CA
Select Site:  

000
ASUS46 KSTO 241915
RWRCA

NORTHERN AND CENTRAL CA REGIONAL WEATHER ROUNDUP
NATIONAL WEATHER SERVICE SACRAMENTO CA
1200 PM PDT SUN MAR 24 2019

NOTE: FAIR INDICATES FEW OR NO CLOUDS BELOW 12,000 FEET WITH NO
SIGNIFICANT WEATHER AND/OR OBSTRUCTIONS TO VISIBILITY.

CAZ001-003-242000-
NORTHWEST AREA

CITY           SKY/WX    TMP DP  RH WIND       PRES   REMARKS
CRESCENT CITY  MOSUNNY   54  43  66 SW12      30.18F
UKIAH          PTSUNNY   52  43  71 S5        30.20F
$$

CAZ006-505>513-242000-
BAY AREA

CITY           SKY/WX    TMP DP  RH WIND       PRES   REMARKS
SANTA ROSA     PTSUNNY   55  47  74 S7        30.21F
SAN RAFAEL     N/A      MM  MM  MM MISG
NAPA           PTSUNNY   59  47  64 E12       30.23F
CONCORD        PTSUNNY   59  46  62 NE5       30.24F
OAKLAND CITY   N/A       56  MM  MM MISG
OAKLAND        PTSUNNY   56  48  74 SW6       30.24F
SAN FRAN CITY  N/A       57  MM  60 MISG
SAN FRAN ARPT  PTSUNNY   55  46  71 NE6       30.23F
LIVERMORE      MOSUNNY   58  47  66 CALM      30.23F
HAYWARD        PTSUNNY   69  43  38 CALM      30.23F
REDWOOD CITY   N/A       57  MM  64 MISG
MOFFETT ARPT   MOSUNNY   59  46  62 N7        30.24S
SAN JOSE ARPT  CLOUDY    61  29  29 CALM      30.22F
$$
CAZ034-037-514>518-242000-
CENTRAL COAST

CITY           SKY/WX    TMP DP  RH WIND       PRES   REMARKS
WATSONVILLE    SUNNY     62  45  53 CALM      30.24S
SALINAS        SUNNY     60  46  59 SE13      30.21F
MONTEREY       SUNNY     60  37  42 NW7       30.23S
SAN LUIS OBISP SUNNY     65  43  44 VRB3      30.19F
SANTA MARIA    SUNNY     66  50  56 VRB7      30.20S
$$
CAZ015-016-242000-
NORTHERN SACRAMENTO VALLEY

CITY           SKY/WX    TMP DP  RH WIND       PRES   REMARKS
REDDING        MOSUNNY   57  41  55 VRB3      30.24F
RED BLUFF      MOSUNNY   58  41  53 N5        30.26S
OROVILLE       MOSUNNY   58  43  57 MISG      30.25R
$$
CAZ016>018-242000-
SOUTHERN SACRAMENTO VALLEY

CITY           SKY/WX    TMP DP  RH WIND       PRES   REMARKS
AUBURN         SUNNY     57  34  41 CALM      30.23S
LINCOLN        FAIR      57  43  58 W3        30.24S
MARYSVILLE     MOSUNNY   58  43  57 VRB5      30.25S
SAC INTL ARPT  CLOUDY    56  46  69 NW7       30.25S
MATHER AIRPORT PTSUNNY   59  41  51 CALM      30.24S
DOWNTOWN SAC   N/A       59  MM  MM MISG
SAC EXEC ARPT  MOSUNNY   58  44  60 W5        30.25S
VACAVILLE      PTSUNNY   59  47  64 NE8       30.27R
$$
CAZ019>021-242000-
SAN JOAQUIN VALLEY

CITY           SKY/WX    TMP DP  RH WIND       PRES   REMARKS
STOCKTON       MOSUNNY   59  49  69 NW3       30.25S
MODESTO        SUNNY     59  45  59 VRB6      30.24F
MERCED         SUNNY     60  46  59 NE3       30.24F
LEMOORE        CLOUDY    62  42  47 NW3       30.25F
FRESNO         MOSUNNY   59  46  62 VRB3      30.25F
HANFORD        SUNNY     62  45  53 E3        30.25F
PORTERVILLE    SUNNY     61  48  62 W3        30.25F
BAKERSFIELD    SUNNY     62  44  51 NW7       30.22F
$$
CAZ011-012-071-242000-
NORTHERN MOUNTAINS

CITY           SKY/WX    TMP DP  RH WIND       PRES   REMARKS
YREKA          MOSUNNY   45  36  70 S3        30.22F
MOUNT SHASTA   MOSUNNY   43  31  62 VRB3      30.21S
ALTURAS        PTSUNNY   43  30  60 S7        30.22S
$$
CAZ011-012-071-242000-
SIERRA NEVADA MTNS

CITY           SKY/WX    TMP DP  RH WIND       PRES   REMARKS
BLUE CANYON    SUNNY     41  23  48 S7        30.23S
TAHOE VLY ARPT SUNNY     39  21  48 NE8       30.21R WCI  33
MAMMOTH LAKES  FAIR      36  10  34 CALM      30.25R
$$


 

View Past Reports for Sacramento, CA.

Products Courtesy of NOAA-NWS
NWS Information Parsing Script by Ken True at Saratoga Weather - Script by SE Lincoln Weather.

Google


Contact Us | Mobile
Never base any life decisions on weather information from this site or anywhere over the Internet.
Site is dedicated to our Lord & Savior Jesus Christ | Random Quotes

Copyright © 2019 El Dorado Weather, Inc. | Site Designed By:  El Dorado Weather